Year,Month,Day,Hour,Minute,Value (Times are PST for windspeed in km/hr)
2017,08,03,00,00,8.00
2017,08,03,00,01,6.20
2017,08,03,00,02,6.40
2017,08,03,00,03,6.70
2017,08,03,00,04,5.50
2017,08,03,00,05,7.10
2017,08,03,00,06,9.20
2017,08,03,00,07,6.80
2017,08,03,00,08,5.70
2017,08,03,00,09,6.40
2017,08,03,00,10,8.60
2017,08,03,00,11,6.90
2017,08,03,00,12,3.30
2017,08,03,00,13,1.80
2017,08,03,00,14,0.00
2017,08,03,00,15,3.50
2017,08,03,00,16,5.00
2017,08,03,00,17,0.80
2017,08,03,00,18,0.10
2017,08,03,00,19,6.40
2017,08,03,00,20,9.30
2017,08,03,00,21,7.80
2017,08,03,00,22,8.00
2017,08,03,00,23,5.60
2017,08,03,00,24,3.60
2017,08,03,00,25,5.70
2017,08,03,00,26,9.40
2017,08,03,00,27,5.70
2017,08,03,00,28,4.10
2017,08,03,00,29,6.30
2017,08,03,00,30,7.50
2017,08,03,00,31,4.30
2017,08,03,00,32,3.10
2017,08,03,00,33,0.40
2017,08,03,00,34,2.40
2017,08,03,00,35,3.50
2017,08,03,00,36,1.80
2017,08,03,00,37,6.60
2017,08,03,00,38,3.50
2017,08,03,00,39,0.10
2017,08,03,00,40,2.50
2017,08,03,00,41,12.00
2017,08,03,00,42,5.20
2017,08,03,00,43,5.00
2017,08,03,00,44,6.60
2017,08,03,00,45,6.10
2017,08,03,00,46,1.30
2017,08,03,00,47,0.00
2017,08,03,00,48,1.70
2017,08,03,00,49,6.20
2017,08,03,00,50,3.20
2017,08,03,00,51,9.70
2017,08,03,00,52,13.50
2017,08,03,00,53,10.10
2017,08,03,00,54,7.00
2017,08,03,00,55,7.60
2017,08,03,00,56,4.40
2017,08,03,00,57,3.50
2017,08,03,00,58,8.30
2017,08,03,00,59,2.30
2017,08,03,01,00,3.90
2017,08,03,01,01,5.00
2017,08,03,01,02,5.50
2017,08,03,01,03,8.20
2017,08,03,01,04,8.00
2017,08,03,01,05,6.80
2017,08,03,01,06,7.60
2017,08,03,01,07,3.20
2017,08,03,01,08,1.00
2017,08,03,01,09,0.50
2017,08,03,01,10,1.30
2017,08,03,01,11,0.40
2017,08,03,01,12,0.00
2017,08,03,01,13,1.90
2017,08,03,01,14,4.10
2017,08,03,01,15,4.20
2017,08,03,01,16,6.40
2017,08,03,01,17,6.40
2017,08,03,01,18,3.10
2017,08,03,01,19,4.10
2017,08,03,01,20,5.20
2017,08,03,01,21,9.90
2017,08,03,01,22,10.50
2017,08,03,01,23,7.10
2017,08,03,01,24,5.80
2017,08,03,01,25,5.90
2017,08,03,01,26,4.40
2017,08,03,01,27,4.00
2017,08,03,01,28,0.60
2017,08,03,01,29,4.70
2017,08,03,01,30,2.70
2017,08,03,01,31,3.70
2017,08,03,01,32,2.20
2017,08,03,01,33,4.10
2017,08,03,01,34,1.90
2017,08,03,01,35,2.50
2017,08,03,01,36,3.60
2017,08,03,01,37,3.00
2017,08,03,01,38,0.20
2017,08,03,01,39,5.20
2017,08,03,01,40,7.30
2017,08,03,01,41,2.70
2017,08,03,01,42,0.60
2017,08,03,01,43,2.10
2017,08,03,01,44,5.80
2017,08,03,01,45,5.10
2017,08,03,01,46,2.40
2017,08,03,01,47,0.00
2017,08,03,01,48,0.10
2017,08,03,01,49,0.00
2017,08,03,01,50,1.50
2017,08,03,01,51,0.10
2017,08,03,01,52,0.00
2017,08,03,01,53,0.00
2017,08,03,01,54,1.30
2017,08,03,01,55,0.80
2017,08,03,01,56,0.10
2017,08,03,01,57,0.90
2017,08,03,01,58,1.90
2017,08,03,01,59,7.10
2017,08,03,02,00,2.20
2017,08,03,02,01,2.60
2017,08,03,02,02,6.90
2017,08,03,02,03,6.40
2017,08,03,02,04,6.50
2017,08,03,02,05,7.20
2017,08,03,02,06,3.50
2017,08,03,02,07,8.20
2017,08,03,02,08,3.40
2017,08,03,02,09,2.80
2017,08,03,02,10,5.50
2017,08,03,02,11,8.00
2017,08,03,02,12,5.50
2017,08,03,02,13,4.30
2017,08,03,02,14,2.40
2017,08,03,02,15,4.00
2017,08,03,02,16,5.60
2017,08,03,02,17,1.70
2017,08,03,02,18,4.20
2017,08,03,02,19,4.40
2017,08,03,02,20,6.50
2017,08,03,02,21,3.80
2017,08,03,02,22,1.50
2017,08,03,02,23,6.80
2017,08,03,02,24,3.60
2017,08,03,02,25,4.20
2017,08,03,02,26,4.40
2017,08,03,02,27,1.20
2017,08,03,02,28,1.40
2017,08,03,02,29,4.30
2017,08,03,02,30,3.80
2017,08,03,02,31,1.90
2017,08,03,02,32,0.50
2017,08,03,02,33,4.50
2017,08,03,02,34,4.50
2017,08,03,02,35,4.30
2017,08,03,02,36,4.40
2017,08,03,02,37,2.30
2017,08,03,02,38,0.60
2017,08,03,02,39,4.30
2017,08,03,02,40,6.10
2017,08,03,02,41,4.30
2017,08,03,02,42,4.40
2017,08,03,02,43,5.80
2017,08,03,02,44,7.30
2017,08,03,02,45,5.00
2017,08,03,02,46,3.70
2017,08,03,02,47,4.10
2017,08,03,02,48,2.40
2017,08,03,02,49,1.70
2017,08,03,02,50,0.50
2017,08,03,02,51,1.40
2017,08,03,02,52,0.20
2017,08,03,02,53,0.00
2017,08,03,02,54,5.20
2017,08,03,02,55,6.10
2017,08,03,02,56,1.60
2017,08,03,02,57,0.80
2017,08,03,02,58,3.50
2017,08,03,02,59,3.20
2017,08,03,03,00,5.70
2017,08,03,03,01,5.80
2017,08,03,03,02,2.20
2017,08,03,03,03,2.80
2017,08,03,03,04,0.60
2017,08,03,03,05,0.10
2017,08,03,03,06,1.80
2017,08,03,03,07,3.30
2017,08,03,03,08,1.60
2017,08,03,03,09,0.00
2017,08,03,03,10,0.00
2017,08,03,03,11,0.00
2017,08,03,03,12,3.50
2017,08,03,03,13,0.40
2017,08,03,03,14,0.10
2017,08,03,03,15,0.00
2017,08,03,03,16,0.00
2017,08,03,03,17,0.30
2017,08,03,03,18,3.30
2017,08,03,03,19,0.20
2017,08,03,03,20,0.10
2017,08,03,03,21,0.00
2017,08,03,03,22,0.00
2017,08,03,03,23,2.10
2017,08,03,03,24,1.50
2017,08,03,03,25,0.00
2017,08,03,03,26,0.80
2017,08,03,03,27,1.50
2017,08,03,03,28,3.90
2017,08,03,03,29,3.50
2017,08,03,03,30,2.70
2017,08,03,03,31,0.10
2017,08,03,03,32,0.60
2017,08,03,03,33,0.00
2017,08,03,03,34,0.00
2017,08,03,03,35,0.00
2017,08,03,03,36,0.00
2017,08,03,03,37,0.00
2017,08,03,03,38,0.10
2017,08,03,03,39,0.10
2017,08,03,03,40,0.00
2017,08,03,03,41,0.10
2017,08,03,03,42,0.60
2017,08,03,03,43,4.70
2017,08,03,03,44,2.80
2017,08,03,03,45,2.30
2017,08,03,03,46,1.10
2017,08,03,03,47,1.10
2017,08,03,03,48,3.00
2017,08,03,03,49,6.00
2017,08,03,03,50,6.90
2017,08,03,03,51,8.90
2017,08,03,03,52,4.30
2017,08,03,03,53,0.20
2017,08,03,03,54,0.00
2017,08,03,03,55,1.50
2017,08,03,03,56,0.90
2017,08,03,03,57,0.60
2017,08,03,03,58,0.20
2017,08,03,03,59,1.00
2017,08,03,04,00,1.10
2017,08,03,04,01,0.30
2017,08,03,04,02,1.50
2017,08,03,04,03,0.40
2017,08,03,04,04,0.60
2017,08,03,04,05,1.50
2017,08,03,04,06,0.00
2017,08,03,04,07,0.00
2017,08,03,04,08,0.10
2017,08,03,04,09,0.00
2017,08,03,04,10,0.00
2017,08,03,04,11,0.10
2017,08,03,04,12,0.00
2017,08,03,04,13,0.10
2017,08,03,04,14,0.30
2017,08,03,04,15,0.50
2017,08,03,04,16,0.70
2017,08,03,04,17,0.20
2017,08,03,04,18,3.20
2017,08,03,04,19,7.30
2017,08,03,04,20,3.00
2017,08,03,04,21,4.10
2017,08,03,04,22,2.50
2017,08,03,04,23,0.80
2017,08,03,04,24,4.40
2017,08,03,04,25,2.30
2017,08,03,04,26,3.30
2017,08,03,04,27,2.10
2017,08,03,04,28,0.00
2017,08,03,04,29,0.10
2017,08,03,04,30,0.10
2017,08,03,04,31,0.00
2017,08,03,04,32,0.00
2017,08,03,04,33,0.00
2017,08,03,04,34,0.00
2017,08,03,04,35,0.00
2017,08,03,04,36,0.00
2017,08,03,04,37,0.10
2017,08,03,04,38,0.00
2017,08,03,04,39,0.00
2017,08,03,04,40,0.00
2017,08,03,04,41,0.00
2017,08,03,04,42,0.00
2017,08,03,04,43,0.00
2017,08,03,04,44,0.00
2017,08,03,04,45,0.10
2017,08,03,04,46,0.00
2017,08,03,04,47,0.00
2017,08,03,04,48,0.00
2017,08,03,04,49,0.30
2017,08,03,04,50,2.90
2017,08,03,04,51,2.80
2017,08,03,04,52,3.00
2017,08,03,04,53,0.00
2017,08,03,04,54,0.40
2017,08,03,04,55,0.50
2017,08,03,04,56,3.30
2017,08,03,04,57,1.00
2017,08,03,04,58,2.70
2017,08,03,04,59,0.20
2017,08,03,05,00,4.70
2017,08,03,05,01,2.70
2017,08,03,05,02,5.60
2017,08,03,05,03,3.90
2017,08,03,05,04,1.90
2017,08,03,05,05,2.20
2017,08,03,05,06,2.20
2017,08,03,05,07,0.70
2017,08,03,05,08,1.40
2017,08,03,05,09,0.90
2017,08,03,05,10,3.20
2017,08,03,05,11,4.30
2017,08,03,05,12,0.00
2017,08,03,05,13,0.30
2017,08,03,05,14,0.20
2017,08,03,05,15,2.20
2017,08,03,05,16,6.10
2017,08,03,05,17,1.80
2017,08,03,05,18,0.10
2017,08,03,05,19,0.10
2017,08,03,05,20,0.60
2017,08,03,05,21,0.30
2017,08,03,05,22,1.40
2017,08,03,05,23,1.20
2017,08,03,05,24,0.80
2017,08,03,05,25,2.60
2017,08,03,05,26,1.90
2017,08,03,05,27,3.50
2017,08,03,05,28,3.00
2017,08,03,05,29,0.20
2017,08,03,05,30,0.20
2017,08,03,05,31,0.00
2017,08,03,05,32,0.00
2017,08,03,05,33,0.10
2017,08,03,05,34,0.00
2017,08,03,05,35,0.00
2017,08,03,05,36,2.90
2017,08,03,05,37,1.90
2017,08,03,05,38,0.30
2017,08,03,05,39,1.50
2017,08,03,05,40,4.70
2017,08,03,05,41,2.30
2017,08,03,05,42,3.60
2017,08,03,05,43,3.00
2017,08,03,05,44,1.30
2017,08,03,05,45,5.80
2017,08,03,05,46,8.80
2017,08,03,05,47,5.00
2017,08,03,05,48,3.90
2017,08,03,05,49,11.50
2017,08,03,05,50,7.50
2017,08,03,05,51,5.60
2017,08,03,05,52,7.60
2017,08,03,05,53,7.70
2017,08,03,05,54,8.10
2017,08,03,05,55,6.50
2017,08,03,05,56,3.60
2017,08,03,05,57,7.90
2017,08,03,05,58,8.60
2017,08,03,05,59,3.70
2017,08,03,06,00,4.30
2017,08,03,06,01,6.60
2017,08,03,06,02,8.80
2017,08,03,06,03,7.20
2017,08,03,06,04,9.70
2017,08,03,06,05,8.60
2017,08,03,06,06,3.80
2017,08,03,06,07,6.00
2017,08,03,06,08,3.90
2017,08,03,06,09,2.90
2017,08,03,06,10,6.40
2017,08,03,06,11,5.40
2017,08,03,06,12,5.80
2017,08,03,06,13,7.10
2017,08,03,06,14,4.80
2017,08,03,06,15,4.00
2017,08,03,06,16,2.70
2017,08,03,06,17,1.60
2017,08,03,06,18,2.90
2017,08,03,06,19,3.40
2017,08,03,06,20,2.30
2017,08,03,06,21,5.10
2017,08,03,06,22,3.60
2017,08,03,06,23,6.40
2017,08,03,06,24,4.10
2017,08,03,06,25,1.70
2017,08,03,06,26,5.60
2017,08,03,06,27,2.40
2017,08,03,06,28,4.10
2017,08,03,06,29,1.20
2017,08,03,06,30,0.10
2017,08,03,06,31,3.50
2017,08,03,06,32,3.10
2017,08,03,06,33,6.00
2017,08,03,06,34,0.50
2017,08,03,06,35,2.10
2017,08,03,06,36,1.40
2017,08,03,06,37,3.90
2017,08,03,06,38,7.20
2017,08,03,06,39,6.40
2017,08,03,06,40,5.40
2017,08,03,06,41,5.20
2017,08,03,06,42,6.30
2017,08,03,06,43,2.70
2017,08,03,06,44,2.20
2017,08,03,06,45,2.90
2017,08,03,06,46,0.30
2017,08,03,06,47,0.00
2017,08,03,06,48,2.10
2017,08,03,06,49,4.00
2017,08,03,06,50,4.30
2017,08,03,06,51,3.30
2017,08,03,06,52,3.20
2017,08,03,06,53,1.50
2017,08,03,06,54,0.10
2017,08,03,06,55,1.60
2017,08,03,06,56,1.90
2017,08,03,06,57,5.30
2017,08,03,06,58,7.20
2017,08,03,06,59,6.90
2017,08,03,07,00,7.20
2017,08,03,07,01,8.20
2017,08,03,07,02,12.60
2017,08,03,07,03,13.90
2017,08,03,07,04,5.00
2017,08,03,07,05,6.30
2017,08,03,07,06,8.50
2017,08,03,07,07,9.90
2017,08,03,07,08,5.30
2017,08,03,07,09,7.40
2017,08,03,07,10,6.00
2017,08,03,07,11,4.10
2017,08,03,07,12,4.50
2017,08,03,07,13,10.10
2017,08,03,07,14,7.90
2017,08,03,07,15,4.40
2017,08,03,07,16,5.60
2017,08,03,07,17,7.30
2017,08,03,07,18,4.70
2017,08,03,07,19,6.40
2017,08,03,07,20,4.20
2017,08,03,07,21,1.10
2017,08,03,07,22,4.80
2017,08,03,07,23,6.50
2017,08,03,07,24,7.60
2017,08,03,07,25,3.60
2017,08,03,07,26,3.30
2017,08,03,07,27,2.10
2017,08,03,07,28,2.30
2017,08,03,07,29,5.30
2017,08,03,07,30,3.50
2017,08,03,07,31,4.30
2017,08,03,07,32,7.10
2017,08,03,07,33,6.40
2017,08,03,07,34,8.70
2017,08,03,07,35,4.70
2017,08,03,07,36,3.20
2017,08,03,07,37,6.20
2017,08,03,07,38,5.80
2017,08,03,07,39,4.20
2017,08,03,07,40,1.20
2017,08,03,07,41,7.30
2017,08,03,07,42,6.60
2017,08,03,07,43,7.50
2017,08,03,07,44,4.30
2017,08,03,07,45,2.30
2017,08,03,07,46,4.70
2017,08,03,07,47,9.30
2017,08,03,07,48,7.10
2017,08,03,07,49,9.90
2017,08,03,07,50,14.10
2017,08,03,07,51,5.10
2017,08,03,07,52,9.30
2017,08,03,07,53,13.90
2017,08,03,07,54,8.60
2017,08,03,07,55,6.40
2017,08,03,07,56,3.70
2017,08,03,07,57,7.30
2017,08,03,07,58,5.60
2017,08,03,07,59,1.80
2017,08,03,08,00,3.50
2017,08,03,08,01,2.10
2017,08,03,08,02,0.60
2017,08,03,08,03,0.10
2017,08,03,08,04,0.10
2017,08,03,08,05,2.80
2017,08,03,08,06,0.50
2017,08,03,08,07,4.50
2017,08,03,08,08,5.20
2017,08,03,08,09,3.10
2017,08,03,08,10,2.90
2017,08,03,08,11,3.70
2017,08,03,08,12,6.30
2017,08,03,08,13,5.20
2017,08,03,08,14,6.60
2017,08,03,08,15,9.70
2017,08,03,08,16,6.90
2017,08,03,08,17,7.00
2017,08,03,08,18,8.10
2017,08,03,08,19,8.70
2017,08,03,08,20,8.30
2017,08,03,08,21,3.00
2017,08,03,08,22,9.90
2017,08,03,08,23,8.00
2017,08,03,08,24,6.10
2017,08,03,08,25,8.90
2017,08,03,08,26,6.20
2017,08,03,08,27,8.00
2017,08,03,08,28,11.00
2017,08,03,08,29,12.20
2017,08,03,08,30,11.30
2017,08,03,08,31,14.70
2017,08,03,08,32,11.60
2017,08,03,08,33,6.90
2017,08,03,08,34,3.00
2017,08,03,08,35,6.40
2017,08,03,08,36,8.40
2017,08,03,08,37,9.30
2017,08,03,08,38,2.10
2017,08,03,08,39,5.00
2017,08,03,08,40,4.20
2017,08,03,08,41,6.00
2017,08,03,08,42,4.90
2017,08,03,08,43,5.60
2017,08,03,08,44,4.40
2017,08,03,08,45,14.40
2017,08,03,08,46,10.00
2017,08,03,08,47,8.70
2017,08,03,08,48,4.80
2017,08,03,08,49,9.00
2017,08,03,08,50,5.40
2017,08,03,08,51,6.40
2017,08,03,08,52,7.90
2017,08,03,08,53,11.90
2017,08,03,08,54,7.90
2017,08,03,08,55,5.10
2017,08,03,08,56,10.70
2017,08,03,08,57,13.20
2017,08,03,08,58,5.20
2017,08,03,08,59,13.60
2017,08,03,09,00,11.60
2017,08,03,09,01,6.80
2017,08,03,09,02,2.20
2017,08,03,09,03,1.80
2017,08,03,09,04,11.00
2017,08,03,09,05,13.40
2017,08,03,09,06,7.10
2017,08,03,09,07,7.30
2017,08,03,09,08,6.00
2017,08,03,09,09,3.90
2017,08,03,09,10,10.50
2017,08,03,09,11,6.00
2017,08,03,09,12,7.60
2017,08,03,09,13,5.70
2017,08,03,09,14,6.70
2017,08,03,09,15,5.40
2017,08,03,09,16,5.90
2017,08,03,09,17,6.40
2017,08,03,09,18,4.80
2017,08,03,09,19,7.20
2017,08,03,09,20,12.10
2017,08,03,09,21,12.80
2017,08,03,09,22,12.00
2017,08,03,09,23,21.60
2017,08,03,09,24,14.90
2017,08,03,09,25,16.90
2017,08,03,09,26,10.90
2017,08,03,09,27,9.20
2017,08,03,09,28,7.60
2017,08,03,09,29,12.60
2017,08,03,09,30,10.70
2017,08,03,09,31,11.00
2017,08,03,09,32,11.80
2017,08,03,09,33,13.30
2017,08,03,09,34,10.90
2017,08,03,09,35,10.70
2017,08,03,09,36,11.70
2017,08,03,09,37,5.80
2017,08,03,09,38,7.60
2017,08,03,09,39,16.80
2017,08,03,09,40,10.60
2017,08,03,09,41,11.70
2017,08,03,09,42,9.70
2017,08,03,09,43,9.80
2017,08,03,09,44,6.80
2017,08,03,09,45,7.70
2017,08,03,09,46,7.30
2017,08,03,09,47,7.50
2017,08,03,09,48,6.10
2017,08,03,09,49,11.30
2017,08,03,09,50,5.20
2017,08,03,09,51,10.30
2017,08,03,09,52,6.80
2017,08,03,09,53,9.60
2017,08,03,09,54,9.10
2017,08,03,09,55,12.70
2017,08,03,09,56,8.50
2017,08,03,09,57,9.70
2017,08,03,09,58,10.50
2017,08,03,09,59,6.40
2017,08,03,10,00,17.90
2017,08,03,10,01,12.20
2017,08,03,10,02,16.50
2017,08,03,10,03,14.50
2017,08,03,10,04,7.10
2017,08,03,10,05,14.50
2017,08,03,10,06,20.40
2017,08,03,10,07,11.50
2017,08,03,10,08,10.10
2017,08,03,10,09,14.00
2017,08,03,10,10,11.20
2017,08,03,10,11,7.50
2017,08,03,10,12,15.40
2017,08,03,10,13,13.90
2017,08,03,10,14,14.00
2017,08,03,10,15,14.70
2017,08,03,10,16,12.20
2017,08,03,10,17,14.30
2017,08,03,10,18,8.50
2017,08,03,10,19,9.20
2017,08,03,10,20,13.40
2017,08,03,10,21,11.90
2017,08,03,10,22,11.60
2017,08,03,10,23,11.30
2017,08,03,10,24,5.20
2017,08,03,10,25,7.00
2017,08,03,10,26,3.50
2017,08,03,10,27,9.40
2017,08,03,10,28,8.70
2017,08,03,10,29,6.60
2017,08,03,10,30,4.80
2017,08,03,10,31,1.40
2017,08,03,10,32,7.10
2017,08,03,10,33,7.30
2017,08,03,10,34,14.20
2017,08,03,10,35,10.80
2017,08,03,10,36,13.20
2017,08,03,10,37,12.00
2017,08,03,10,38,8.30
2017,08,03,10,39,10.60
2017,08,03,10,40,12.10
2017,08,03,10,41,11.50
2017,08,03,10,42,10.90
2017,08,03,10,43,13.60
2017,08,03,10,44,14.20
2017,08,03,10,45,9.40
2017,08,03,10,46,14.40
2017,08,03,10,47,8.30
2017,08,03,10,48,14.60
2017,08,03,10,49,8.60
2017,08,03,10,50,7.10
2017,08,03,10,51,9.30
2017,08,03,10,52,12.00
2017,08,03,10,53,10.70
2017,08,03,10,54,13.80
2017,08,03,10,55,12.60
2017,08,03,10,56,10.10
2017,08,03,10,57,8.70
2017,08,03,10,58,15.40
2017,08,03,10,59,9.60
2017,08,03,11,00,11.50
2017,08,03,11,01,13.90
2017,08,03,11,02,6.30
2017,08,03,11,03,6.50
2017,08,03,11,04,17.30
2017,08,03,11,05,15.20
2017,08,03,11,06,15.10
2017,08,03,11,07,8.20
2017,08,03,11,08,14.40
2017,08,03,11,09,6.80
2017,08,03,11,10,8.70
2017,08,03,11,11,18.70
2017,08,03,11,12,16.20
2017,08,03,11,13,10.30
2017,08,03,11,14,11.10
2017,08,03,11,15,8.50
2017,08,03,11,16,10.20
2017,08,03,11,17,8.50
2017,08,03,11,18,13.30
2017,08,03,11,19,11.40
2017,08,03,11,20,3.70
2017,08,03,11,21,6.00
2017,08,03,11,22,9.50
2017,08,03,11,23,11.50
2017,08,03,11,24,11.10
2017,08,03,11,25,13.80
2017,08,03,11,26,10.50
2017,08,03,11,27,10.30
2017,08,03,11,28,10.50
2017,08,03,11,29,13.00
2017,08,03,11,30,8.00
2017,08,03,11,31,8.90
2017,08,03,11,32,8.20
2017,08,03,11,33,8.20
2017,08,03,11,34,4.30
2017,08,03,11,35,13.80
2017,08,03,11,36,14.10
2017,08,03,11,37,13.80
2017,08,03,11,38,12.50
2017,08,03,11,39,11.60
2017,08,03,11,40,13.00
2017,08,03,11,41,13.60
2017,08,03,11,42,9.60
2017,08,03,11,43,10.50
2017,08,03,11,44,10.20
2017,08,03,11,45,14.30
2017,08,03,11,46,12.10
2017,08,03,11,47,10.70
2017,08,03,11,48,8.80
2017,08,03,11,49,19.10
2017,08,03,11,50,19.50
2017,08,03,11,51,20.00
2017,08,03,11,52,13.50
2017,08,03,11,53,12.70
2017,08,03,11,54,15.50
2017,08,03,11,55,10.90
2017,08,03,11,56,7.40
2017,08,03,11,57,10.90
2017,08,03,11,58,7.60
2017,08,03,11,59,10.40
2017,08,03,12,00,9.60
2017,08,03,12,01,8.20
2017,08,03,12,02,10.90
2017,08,03,12,03,15.60
2017,08,03,12,04,14.20
2017,08,03,12,05,16.20
2017,08,03,12,06,13.00
2017,08,03,12,07,10.30
2017,08,03,12,08,10.20
2017,08,03,12,09,10.00
2017,08,03,12,10,17.90
2017,08,03,12,11,15.40
2017,08,03,12,12,15.40
2017,08,03,12,13,15.30
2017,08,03,12,14,10.10
2017,08,03,12,15,12.60
2017,08,03,12,16,8.30
2017,08,03,12,17,10.70
2017,08,03,12,18,10.10
2017,08,03,12,19,13.50
2017,08,03,12,20,11.30
2017,08,03,12,21,15.10
2017,08,03,12,22,7.20
2017,08,03,12,23,3.70
2017,08,03,12,24,3.20
2017,08,03,12,25,10.10
2017,08,03,12,26,11.30
2017,08,03,12,27,9.10
2017,08,03,12,28,11.70
2017,08,03,12,29,14.60
2017,08,03,12,30,9.10
2017,08,03,12,31,15.60
2017,08,03,12,32,14.60
2017,08,03,12,33,12.40
2017,08,03,12,34,11.30
2017,08,03,12,35,12.00
2017,08,03,12,36,8.50
2017,08,03,12,37,7.90
2017,08,03,12,38,8.60
2017,08,03,12,39,10.80
2017,08,03,12,40,9.40
2017,08,03,12,41,14.10
2017,08,03,12,42,10.90
2017,08,03,12,43,15.60
2017,08,03,12,44,14.90
2017,08,03,12,45,20.60
2017,08,03,12,46,13.10
2017,08,03,12,47,14.20
2017,08,03,12,48,11.60
2017,08,03,12,49,11.60
2017,08,03,12,50,19.00
2017,08,03,12,51,16.70
2017,08,03,12,52,13.80
2017,08,03,12,53,12.50
2017,08,03,12,54,14.40
2017,08,03,12,55,11.30
2017,08,03,12,56,9.60
2017,08,03,12,57,15.20
2017,08,03,12,58,17.00
2017,08,03,12,59,13.60
2017,08,03,13,00,12.30
2017,08,03,13,01,11.60
2017,08,03,13,02,10.40
2017,08,03,13,03,14.80
2017,08,03,13,04,16.70
2017,08,03,13,05,10.90
2017,08,03,13,06,10.20
2017,08,03,13,07,18.30
2017,08,03,13,08,19.70
2017,08,03,13,09,15.40
2017,08,03,13,10,15.30
2017,08,03,13,11,13.50
2017,08,03,13,12,17.50
2017,08,03,13,13,13.30
2017,08,03,13,14,10.40
2017,08,03,13,15,11.90
2017,08,03,13,16,15.80
2017,08,03,13,17,12.50
2017,08,03,13,18,16.60
2017,08,03,13,19,20.00
2017,08,03,13,20,13.30
2017,08,03,13,21,10.10
2017,08,03,13,22,9.30
2017,08,03,13,23,13.90
2017,08,03,13,24,9.70
2017,08,03,13,25,13.30
2017,08,03,13,26,15.80
2017,08,03,13,27,15.90
2017,08,03,13,28,13.00
2017,08,03,13,29,13.90
2017,08,03,13,30,12.60
2017,08,03,13,31,12.80
2017,08,03,13,32,8.60
2017,08,03,13,33,9.30
2017,08,03,13,34,12.70
2017,08,03,13,35,12.10
2017,08,03,13,36,14.30
2017,08,03,13,37,16.00
2017,08,03,13,38,14.30
2017,08,03,13,39,22.90
2017,08,03,13,40,22.50
2017,08,03,13,41,14.00
2017,08,03,13,42,20.50
2017,08,03,13,43,15.20
2017,08,03,13,44,14.10
2017,08,03,13,45,15.30
2017,08,03,13,46,17.40
2017,08,03,13,47,13.40
2017,08,03,13,48,17.60
2017,08,03,13,49,20.10
2017,08,03,13,50,10.80
2017,08,03,13,51,9.70
2017,08,03,13,52,14.40
2017,08,03,13,53,12.20
2017,08,03,13,54,10.00
2017,08,03,13,55,11.70
2017,08,03,13,56,11.00
2017,08,03,13,57,7.80
2017,08,03,13,58,5.80
2017,08,03,13,59,10.80
2017,08,03,14,00,13.30
2017,08,03,14,01,13.00
2017,08,03,14,02,7.80
2017,08,03,14,03,13.40
2017,08,03,14,04,22.20
2017,08,03,14,05,14.10
2017,08,03,14,06,10.30
2017,08,03,14,07,17.40
2017,08,03,14,08,10.10
2017,08,03,14,09,13.10
2017,08,03,14,10,13.40
2017,08,03,14,11,10.00
2017,08,03,14,12,15.20
2017,08,03,14,13,18.00
2017,08,03,14,14,18.00
2017,08,03,14,15,18.00
2017,08,03,14,16,16.20
2017,08,03,14,17,9.90
2017,08,03,14,18,14.90
2017,08,03,14,19,16.20
2017,08,03,14,20,22.30
2017,08,03,14,21,19.90
2017,08,03,14,22,20.30
2017,08,03,14,23,17.30
2017,08,03,14,24,12.70
2017,08,03,14,25,16.70
2017,08,03,14,26,18.70
2017,08,03,14,27,10.90
2017,08,03,14,28,11.60
2017,08,03,14,29,12.30
2017,08,03,14,30,15.40
2017,08,03,14,31,12.50
2017,08,03,14,32,11.30
2017,08,03,14,33,16.80
2017,08,03,14,34,19.80
2017,08,03,14,35,18.20
2017,08,03,14,36,20.10
2017,08,03,14,37,22.50
2017,08,03,14,38,20.90
2017,08,03,14,39,20.90
2017,08,03,14,40,19.60
2017,08,03,14,41,19.40
2017,08,03,14,42,19.50
2017,08,03,14,43,23.70
2017,08,03,14,44,21.90
2017,08,03,14,45,17.80
2017,08,03,14,46,18.10
2017,08,03,14,47,17.80
2017,08,03,14,48,18.80
2017,08,03,14,49,19.50
2017,08,03,14,50,17.90
2017,08,03,14,51,18.20
2017,08,03,14,52,21.60
2017,08,03,14,53,22.60
2017,08,03,14,54,20.90
2017,08,03,14,55,24.70
2017,08,03,14,56,24.50
2017,08,03,14,57,17.30
2017,08,03,14,58,20.20
2017,08,03,14,59,20.00
2017,08,03,15,00,17.20
2017,08,03,15,01,15.00
2017,08,03,15,02,18.40
2017,08,03,15,03,23.80
2017,08,03,15,04,18.20
2017,08,03,15,05,16.60
2017,08,03,15,06,17.10
2017,08,03,15,07,11.80
2017,08,03,15,08,15.30
2017,08,03,15,09,14.90
2017,08,03,15,10,11.70
2017,08,03,15,11,17.60
2017,08,03,15,12,15.80
2017,08,03,15,13,16.70
2017,08,03,15,14,16.40
2017,08,03,15,15,16.90
2017,08,03,15,16,17.20
2017,08,03,15,17,13.70
2017,08,03,15,18,19.90
2017,08,03,15,19,12.20
2017,08,03,15,20,15.70
2017,08,03,15,21,19.80
2017,08,03,15,22,14.50
2017,08,03,15,23,15.50
2017,08,03,15,24,11.40
2017,08,03,15,25,12.20
2017,08,03,15,26,12.20
2017,08,03,15,27,17.40
2017,08,03,15,28,15.10
2017,08,03,15,29,17.90
2017,08,03,15,30,14.80
2017,08,03,15,31,18.40
2017,08,03,15,32,16.40
2017,08,03,15,33,13.10
2017,08,03,15,34,11.70
2017,08,03,15,35,13.30
2017,08,03,15,36,16.00
2017,08,03,15,37,15.00
2017,08,03,15,38,14.00
2017,08,03,15,39,17.10
2017,08,03,15,40,15.70
2017,08,03,15,41,13.00
2017,08,03,15,42,13.40
2017,08,03,15,43,16.70
2017,08,03,15,44,13.90
2017,08,03,15,45,13.40
2017,08,03,15,46,18.30
2017,08,03,15,47,12.90
2017,08,03,15,48,15.30
2017,08,03,15,49,14.10
2017,08,03,15,50,13.50
2017,08,03,15,51,13.00
2017,08,03,15,52,12.90
2017,08,03,15,53,16.60
2017,08,03,15,54,15.00
2017,08,03,15,55,19.80
2017,08,03,15,56,17.30
2017,08,03,15,57,18.20
2017,08,03,15,58,18.80
2017,08,03,15,59,14.90
2017,08,03,16,00,18.30
2017,08,03,16,01,15.50
2017,08,03,16,02,18.50
2017,08,03,16,03,16.30
2017,08,03,16,04,11.90
2017,08,03,16,05,11.80
2017,08,03,16,06,14.20
2017,08,03,16,07,19.60
2017,08,03,16,08,11.00
2017,08,03,16,09,19.80
2017,08,03,16,10,21.40
2017,08,03,16,11,16.80
2017,08,03,16,12,15.50
2017,08,03,16,13,19.60
2017,08,03,16,14,13.70
2017,08,03,16,15,17.10
2017,08,03,16,16,24.60
2017,08,03,16,17,24.30
2017,08,03,16,18,23.40
2017,08,03,16,19,23.40
2017,08,03,16,20,17.90
2017,08,03,16,21,20.30
2017,08,03,16,22,22.50
2017,08,03,16,23,21.60
2017,08,03,16,24,22.30
2017,08,03,16,25,17.70
2017,08,03,16,26,17.70
2017,08,03,16,27,17.90
2017,08,03,16,28,16.30
2017,08,03,16,29,14.70
2017,08,03,16,30,24.00
2017,08,03,16,31,24.50
2017,08,03,16,32,15.40
2017,08,03,16,33,24.30
2017,08,03,16,34,19.80
2017,08,03,16,35,22.50
2017,08,03,16,36,25.30
2017,08,03,16,37,21.90
2017,08,03,16,38,21.00
2017,08,03,16,39,21.70
2017,08,03,16,40,21.50
2017,08,03,16,41,11.50
2017,08,03,16,42,20.10
2017,08,03,16,43,21.90
2017,08,03,16,44,25.30
2017,08,03,16,45,20.10
2017,08,03,16,46,24.40
2017,08,03,16,47,28.80
2017,08,03,16,48,14.40
2017,08,03,16,49,16.50
2017,08,03,16,50,19.10
2017,08,03,16,51,19.20
2017,08,03,16,52,11.30
2017,08,03,16,53,12.00
2017,08,03,16,54,18.20
2017,08,03,16,55,17.90
2017,08,03,16,56,16.70
2017,08,03,16,57,16.30
2017,08,03,16,58,13.90
2017,08,03,16,59,16.90
2017,08,03,17,00,19.50
2017,08,03,17,01,19.90
2017,08,03,17,02,16.30
2017,08,03,17,03,21.40
2017,08,03,17,04,16.20
2017,08,03,17,05,13.00
2017,08,03,17,06,16.30
2017,08,03,17,07,15.90
2017,08,03,17,08,13.20
2017,08,03,17,09,13.70
2017,08,03,17,10,12.00
2017,08,03,17,11,9.30
2017,08,03,17,12,13.80
2017,08,03,17,13,7.80
2017,08,03,17,14,6.40
2017,08,03,17,15,10.10
2017,08,03,17,16,11.70
2017,08,03,17,17,11.00
2017,08,03,17,18,17.20
2017,08,03,17,19,14.70
2017,08,03,17,20,9.00
2017,08,03,17,21,13.50
2017,08,03,17,22,13.00
2017,08,03,17,23,12.00
2017,08,03,17,24,9.00
2017,08,03,17,25,5.40
2017,08,03,17,26,9.40
2017,08,03,17,27,14.50
2017,08,03,17,28,9.20
2017,08,03,17,29,7.10
2017,08,03,17,30,6.80
2017,08,03,17,31,6.90
2017,08,03,17,32,6.00
2017,08,03,17,33,8.10
2017,08,03,17,34,10.20
2017,08,03,17,35,11.10
2017,08,03,17,36,10.10
2017,08,03,17,37,10.40
2017,08,03,17,38,11.70
2017,08,03,17,39,14.20
2017,08,03,17,40,14.60
2017,08,03,17,41,8.10
2017,08,03,17,42,7.70
2017,08,03,17,43,14.70
2017,08,03,17,44,9.70
2017,08,03,17,45,9.00
2017,08,03,17,46,8.40